Location: Brudzew
(52.0976°N, 18.6049°E)
Time: 23:10:08
(UTC+01:00)

ISS - Visible Passes

Search period start: 23 January 2019 00:00
Search period end: 02 February 2019 00:00
Orbit: 404 x 410 km, 51.6° (Epoch: 24 January)

Date Brightness Start Highest point End Pass type
(mag) Time Alt. Az. Time Alt. Az. Time Alt. Az.
23 Jan -1.4 18:40:09 10° SSW 18:41:05 15° S 18:41:05 15° S visible
24 Jan -1.7 17:49:43 10° S 17:51:37 14° SE 17:52:04 14° SE visible
24 Jan -0.7 19:24:24 10° SW 19:24:47 13° SW 19:24:47 13° SW visible
25 Jan -2.6 18:33:16 10° SW 18:35:41 32° S 18:35:41 32° S visible
26 Jan -2.3 17:42:18 10° SSW 17:45:05 25° SSE 17:46:30 19° ESE visible
26 Jan -1.2 19:18:01 10° WSW 19:19:14 21° WSW 19:19:14 21° WSW visible
27 Jan -3.6 18:26:42 10° WSW 18:29:58 56° SSE 18:30:00 56° SSE visible
28 Jan -3.1 17:35:29 10° SW 17:38:37 42° SSE 17:40:43 18° E visible
28 Jan -1.8 19:11:42 10° W 19:13:26 28° W 19:13:26 28° W visible
29 Jan -3.8 18:20:18 10° WSW 18:23:36 76° S 18:24:07 59° ESE visible
29 Jan -0.2 19:56:49 10° W 19:56:50 10° W 19:56:50 10° W visible
30 Jan -3.6 17:28:55 10° WSW 17:32:12 63° SSE 17:34:47 15° E visible
30 Jan -2.3 19:05:22 10° W 19:07:30 37° W 19:07:30 37° W visible
31 Jan -3.9 18:13:56 10° W 18:17:14 85° S 18:18:09 45° E visible
31 Jan -0.4 19:50:27 10° W 19:50:52 13° W 19:50:52 13° W visible
01 Feb -3.8 17:22:29 10° W 17:25:47 80° S 17:28:49 12° E visible
01 Feb -2.8 18:59:00 10° W 19:01:32 47° WSW 19:01:32 47° WSW visible
